#timestamp,LO_Frequency,Hit,StdDev 
1586905215.6,286047001.0,N
1586905235.4,286046998.1,N
1586905255.3,286047002.8,N
1586905275.1,286047006.0,N
1586905295.8,286047003.6,N
1586905315.7,286047003.5,N
1586905335.5,286047005.0,N
1586905355.4,286047005.5,N
1586905375.2,286047005.3,N
1586905395.0,286047002.9,N
1586905395.9,286047002.9,N
1586905415.8,286047003.7,N
1586905435.6,286047001.4,N
1586905455.4,286047001.3,N
1586905475.3,286047004.0,N
1586905495.1,286047004.2,N
1586905515.9,286047002.0,N
1586905535.7,286047001.8,N
1586905555.5,286047004.3,N
1586905575.4,286047004.0,N
1586905595.2,286047003.1,N
1586905615.1,286047005.1,N
1586905616.0,286047005.1,N
1586905635.8,286047005.8,Y
1586905655.6,286047003.4,P
1586905675.5,286047001.5,P
1586905695.3,286046999.8,N
1586905715.2,286046999.8,N
1586905735.9,286047000.0,N
1586905755.7,286047000.8,N
1586905775.6,286047000.7,N
1586905795.4,286047000.5,N
1586905815.2,286047000.4,N
1586905835.1,286047002.3,N
1586905836.0,286047002.3,N
1586905855.8,286047000.0,N
1586905875.7,286047002.1,N
1586905895.5,286047002.5,N
1586905915.3,286047001.9,N
1586905935.2,286046999.9,N
1586905955.0,286046999.7,N
1586905955.9,286046999.7,N
1586905975.7,286047001.9,N
1586905995.6,286047002.5,N
1586906015.4,286047003.4,N
1586906035.3,286047004.4,Y
1586906055.1,286047002.5,P
1586906075.8,286047002.0,P
1586906095.7,286046999.9,N
1586906115.5,286047000.2,N
1586906135.4,286047001.0,N
1586906155.2,286047001.1,N
1586906175.0,286047001.2,N
1586906175.9,286047001.2,N
1586906195.8,286047000.6,N
1586906215.6,286047000.0,N
1586906235.4,286046999.9,N
1586906255.3,286047000.1,N
1586906275.1,286047002.4,N
1586906295.9,286046999.7,N
1586906315.7,286047002.1,N
1586906335.5,286047003.8,Y
1586906355.4,286047000.0,P
1586906375.2,286047001.0,N
1586906395.0,286047002.1,P
1586906396.0,286047002.1,N
1586906415.8,286047000.5,N
1586906435.6,286047001.6,N
1586906455.5,286047004.4,Y
1586906475.3,286046999.7,P
1586906495.1,286047000.2,N
1586906515.9,286047002.5,P
1586906535.7,286047000.6,N
1586906555.6,286047000.9,N
1586906575.4,286047002.4,N
1586906595.2,286046999.8,N
1586906615.1,286047001.3,N
1586906616.0,286047001.3,N
1586906635.8,286047004.3,Y
1586906655.7,286047002.4,P
1586906675.5,286047002.1,N
1586906695.3,286047002.8,P
1586906715.2,286047003.9,Y
1586906735.0,286047000.9,P
1586906735.9,286047000.9,N
1586906755.8,286046998.5,N
1586906775.6,286046998.9,N
1586906795.4,286046998.9,N
1586906815.3,286047000.5,N
1586906835.1,286046998.7,N
1586906855.8,286046999.5,N
1586906875.7,286046996.5,N
1586906895.5,286046999.1,N
1586906915.4,286046999.5,N
1586906935.2,286046997.4,N
1586906955.0,286046997.2,N
1586906955.9,286046997.2,N
1586906975.8,286046994.9,Y
1586906995.6,286046999.4,P
1586907015.5,286046998.2,P
1586907035.3,286047001.1,N
1586907055.1,286046998.1,N
1586907075.9,286047000.4,N
1586907095.7,286046998.2,N
1586907115.5,286046998.3,N
1586907135.4,286047001.0,N
1586907155.2,286046998.4,N
1586907175.1,286046996.7,N
1586907176.0,286046996.7,N
1586907195.8,286046997.3,N
1586907215.6,286046997.0,N
1586907235.5,286046997.7,N
1586907255.3,286046997.0,N
1586907275.1,286046996.6,N
1586907295.9,286046999.1,N
1586907315.7,286046999.2,N
1586907335.6,286046998.3,N
1586907355.4,286047011.9,Y
1586907375.2,286047003.9,P
1586907395.1,286047003.2,N
1586907396.0,286047003.2,N
1586907415.8,286047002.0,N
1586907435.7,286047001.9,N
1586907455.5,286047002.6,N
1586907475.3,286047001.5,N
1586907495.2,286047004.1,N
1586907515.0,286047005.1,Y
1586907515.9,286047005.1,P
1586907535.8,286047001.9,N
1586907555.6,286047001.7,N
1586907575.4,286047000.4,N
1586907595.3,286047002.5,N
1586907615.1,286047000.6,N
1586907635.8,286046996.9,N
1586907655.7,286047001.0,N
1586907675.5,286046998.5,N
1586907695.4,286046998.5,N
1586907715.2,286046999.0,N
1586907735.0,286046998.9,N
1586907735.9,286046998.9,N
1586907755.8,286046998.2,N
1586907775.6,286046997.0,N
1586907795.5,286046998.9,N
1586907815.3,286046998.4,N
1586907835.1,286047001.2,N
1586907855.9,286047000.7,N
1586907875.7,286046999.9,N
1586907895.5,286047004.0,N
1586907915.4,286047002.8,N
1586907935.2,286047000.4,N
1586907955.1,286046999.7,N
1586907956.0,286046999.7,N
1586907975.8,286047000.2,N
1586907995.6,286047000.0,N
1586908045.5,286047004.2,E
1586908055.4,286047001.1,N
1586908075.3,286046999.0,P
1586908095.1,286046996.9,N
1586908096.0,286046996.9,N
1586908115.8,286046997.2,N
1586908135.7,286046996.7,N
1586908155.5,286046996.6,N
1586908175.3,286046996.2,N
1586908195.2,286046995.5,N
1586908215.0,286046996.2,N
1586908215.9,286046996.2,N
1586908235.8,286046997.9,N
1586908255.6,286046995.0,Y
1586908275.4,286047001.0,P
1586908295.3,286047000.7,N
1586908315.1,286046998.5,N
1586908335.9,286046998.8,N
1586908355.7,286046998.6,N
1586908375.5,286046999.2,N
1586908395.4,286046998.8,N
1586908415.2,286046999.6,N
1586908435.0,286046998.5,N
1586908435.9,286046998.5,N
1586908455.8,286047000.6,N
1586908475.6,286047000.7,N
1586908495.5,286046999.2,N
1586908515.3,286046996.6,Y
1586908535.1,286046999.3,P
1586908555.9,286046999.1,P
1586908575.7,286046999.4,P
1586908595.6,286047000.1,N
1586908615.4,286047001.2,Y
1586908635.2,286046998.3,P
1586908655.1,286046998.4,N
1586908656.0,286046998.4,P
1586908675.8,286047001.2,N
1586908695.6,286046998.7,N
1586908715.5,286046998.9,N
1586908735.3,286046999.5,N
1586908755.2,286046995.0,Y
1586908775.0,286046999.6,P
1586908775.9,286046999.6,N
1586908795.7,286047001.0,P
